Dewpoint
59 60 60 59 58 58 58 58 58 57 57 56 56 56 57 56 56 56 56 56 55 55 55 57 58 58 55 44 39 52 66 64 42 25 35 41 40 52 50 53 53 54 56 58 58 58 58
59 60 60 59 58 58 58 58 58 58 58 58 58 56 56 56 56 56 56 56 55 54 56 57 58 59 50 34 48 52 42 41 33 27 33 38 40 49 53 53 55 55 56 58 58 57 57
60 60 60 59 59 58 59 58 59 58 57 57 57 57 56 57 56 56 56 55 55 54 56 58 58 55 45 39 47 48 43 34 32 30 35 37 52 52 53 56 57 57 55 57 55 57 55
60 60 60 60 59 58 58 58 58 58 57 57 58 58 56 56 56 55 55 54 54 55 57 58 60 54 36 46 46 37 32 31 30 31 34 32 32 46 54 57 56 53 54 52 55 57 55
60 60 60 59 59 58 58 58 58 57 57 57 58 57 57 56 55 55 54 55 56 56 58 59 55 47 36 48 39 27 26 19 26 31 33 27 43 50 53 49 46 50 46 49 54 56 55
60 60 60 59 58 58 58 58 57 57 57 57 57 57 56 56 55 54 54 56 57 58 57 53 50 42 36 29 34 32 28 27 26 26 22 28 48 48 47 45 39 42 42 47 49 54 54
60 60 59 59 58 58 58 58 57 57 57 57 57 56 56 56 55 53 52 49 45 44 46 33 32 32 31 29 30 29 31 31 24 22 28 28 37 37 40 42 44 43 42 44 50 54 52
60 59 59 58 58 58 58 58 57 56 56 57 56 56 56 55 53 53 48 34 31 30 29 31 32 34 34 23 23 28 31 25 24 26 28 29 29 34 35 39 43 42 39 45 52 54 52
60 59 58 58 57 56 56 56 56 56 56 56 56 55 55 54 53 50 36 33 34 30 30 31 33 31 31 29 20 23 26 20 21 24 24 28 27 25 27 32 35 35 33 40 45 51 52
60 58 58 57 57 56 56 55 56 56 56 56 55 55 54 53 46 33 28 36 33 32 29 28 28 30 32 28 22 24 22 17 15 18 23 22 26 26 21 26 28 28 33 37 45 43 40
60 58 58 57 56 56 55 55 55 55 55 55 55 54 53 52 49 31 32 29 32 34 24 23 27 33 30 26 22 23 24 17 13 12 14 16 19 20 20 24 24 29 40 41 42 37 36
60 58 58 57 56 56 55 55 55 55 55 55 54 53 52 49 49 36 31 30 35 29 24 24 24 26 25 24 23 21 21 23 22 21 20 22 23 22 23 31 31 42 42 43 42 36 32
60 59 58 57 56 56 55 55 55 55 54 53 52 52 51 48 35 36 33 32 27 25 31 26 22 23 23 23 22 22 22 21 20 19 20 20 22 22 28 38 41 38 31 31 32 32 29
60 59 58 57 56 55 55 55 55 54 54 53 51 50 51 47 46 42 32 28 24 26 28 28 24 21 22 22 23 22 23 20 21 18 15 18 21 26 23 28 30 30 28 22 21 21 26
59 58 58 56 55 55 55 55 55 54 53 52 51 47 43 41 43 42 27 21 17 24 30 26 25 23 22 21 22 23 23 20 17 19 20 18 24 31 31 23 26 31 27 22 19 20 20
59 58 57 56 55 56 56 55 55 54 52 51 48 42 38 40 40 32 24 22 19 31 29 26 26 22 22 21 21 23 23 22 19 19 22 24 26 28 32 30 31 29 29 22 23 24 25
58 58 56 56 56 56 56 55 55 53 52 51 46 38 42 42 37 24 18 18 19 29 31 29 26 25 23 21 21 22 22 22 22 21 23 22 25 31 33 29 27 28 25 25 23 26 24
58 57 56 56 55 56 56 55 54 52 51 50 43 34 44 41 23 25 19 21 34 26 33 31 32 29 27 23 22 24 24 24 23 23 23 24 21 25 27 36 37 37 29 28 24 31 31
57 57 56 55 55 56 55 55 53 51 51 51 42 41 46 40 24 22 29 24 28 24 27 30 29 31 29 28 28 24 25 25 25 25 26 26 23 26 27 29 35 31 31 30 29 28 31
57 56 55 54 55 54 54 54 53 52 51 52 45 36 43 44 44 37 35 29 27 32 31 33 32 33 32 30 30 28 26 27 26 25 50 38 23 27 23 27 27 29 30 31 26 24 27
56 54 53 54 55 53 54 54 54 53 51 52 45 42 46 38 40 41 40 38 33 31 34 36 35 35 36 35 28 27 24 29 29 43 33 28 28 28 26 25 24 24 24 29 31 29 28
55 53 53 53 53 53 54 54 54 54 51 47 44 43 41 38 39 38 38 35 35 35 37 33 36 36 36 37 35 33 37 32 31 33 31 27 29 31 27 25 24 22 22 25 28 27 31
54 53 53 52 53 53 53 54 55 54 51 45 47 47 45 39 35 35 32 34 35 41 37 37 38 39 37 37 41 41 40 38 35 34 32 30 28 30 27 25 24 23 23 25 26 29 29
52 52 52 51 51 52 52 52 55 55 53 47 48 48 42 33 35 34 36 39 39 41 41 39 40 40 39 42 41 38 34 27 29 32 29 35 35 30 24 30 25 23 28 25 25 26 28
51 51 51 51 51 51 52 52 54 55 54 49 50 48 45 35 33 33 34 36 39 42 42 40 38 40 42 41 37 37 35 34 29 29 30 31 34 28 26 26 25 24 26 27 28 29 28
50 50 50 51 51 50 51 51 53 55 54 50 49 53 48 43 35 41 41 42 40 39 40 40 41 43 42 38 35 37 32 35 32 29 29 29 38 30 30 26 26 28 24 29 31 30 31
51 51 50 50 51 50 50 51 53 54 54 52 48 53 51 44 38 42 39 42 43 43 40 41 44 42 43 37 32 32 32 38 33 32 32 30 33 31 29 28 26 28 30 37 34 38 40
51 51 51 51 51 51 52 52 53 53 55 55 49 52 51 48 43 43 41 42 41 42 42 43 39 42 41 39 33 30 36 38 37 37 35 32 31 28 30 30 28 31 39 34 42 45 47
51 51 51 51 51 52 53 53 52 52 53 55 51 53 55 51 43 45 45 45 46 44 42 40 40 45 44 47 42 34 37 41 39 34 39 34 35 33 30 30 45 40 38 42 39 44 48
Lifted_Index
11 11 11 11 12 12 12 12 12 13 13 13 14 14 14 14 14 14 14 15 15 15 15 14 12 11 9 7 6 6 7 8 7 5 4 4 3 -0 -2 -2 -2 -1 -1 -1 -2 -2 -2
11 11 11 11 11 11 11 12 12 12 13 13 13 14 14 14 13 13 13 14 14 14 14 12 11 9 8 6 6 6 8 9 8 5 5 5 3 -0 -2 -3 -3 -2 -2 -2 -1 -2 -2
10 10 10 11 11 11 11 11 11 12 12 12 13 13 13 13 13 12 12 12 12 12 12 11 10 8 7 6 6 7 8 9 8 7 6 6 3 0 -2 -3 -3 -3 -2 -2 -1 -1 -2
10 10 10 10 10 11 11 11 11 11 11 12 12 12 13 13 12 12 11 11 11 11 11 10 9 8 7 6 7 8 9 10 8 7 7 7 4 1 -2 -3 -3 -3 -2 -2 -2 -2 -2
9 9 10 10 10 10 11 11 11 11 11 11 11 12 12 12 12 11 11 10 10 10 10 9 8 7 7 7 8 9 10 10 8 7 7 6 3 -0 -2 -2 -2 -2 -2 -2 -2 -2 -2
9 9 10 10 10 10 11 11 11 11 11 11 11 11 11 12 12 11 10 10 9 9 9 8 7 7 7 8 8 9 10 9 7 6 5 3 1 -1 -2 -2 -2 -2 -2 -2 -2 -2 -2
9 9 10 10 10 10 10 11 11 11 11 11 10 10 11 11 11 11 10 9 8 8 8 8 7 7 8 8 9 9 8 8 7 6 4 2 1 -1 -2 -2 -2 -2 -2 -2 -3 -3 -3
9 9 9 10 10 10 10 11 11 11 11 11 11 10 10 11 11 11 10 9 8 8 8 8 7 7 8 9 9 8 8 8 6 5 4 3 1 0 -0 -1 -1 -2 -1 -2 -3 -3 -3
9 9 9 9 10 10 11 11 11 12 12 12 12 11 11 11 11 10 9 9 9 8 8 7 7 7 7 8 8 8 8 8 7 5 4 3 2 2 2 1 -0 -1 -1 -1 -3 -3 -3
9 9 9 9 10 10 10 11 11 12 12 12 12 12 11 11 11 10 9 9 9 8 6 6 7 7 7 7 8 8 8 8 7 6 5 4 3 3 2 1 0 -1 -1 -1 -2 -3 -3
9 9 9 9 10 10 10 10 10 11 11 12 13 12 11 11 11 11 10 9 8 6 5 5 6 6 6 7 7 8 8 8 7 6 5 4 4 3 2 1 0 -1 -2 -2 -3 -3 -2
9 9 9 9 9 9 9 10 10 10 11 12 13 12 11 11 11 11 10 9 7 5 4 5 6 6 6 6 7 7 7 7 7 6 5 4 4 3 2 0 -1 -2 -2 -2 -2 -2 -2
9 9 9 10 9 9 10 10 10 10 10 11 12 12 11 11 11 11 11 8 6 4 4 4 5 5 5 6 6 6 6 6 6 5 4 3 3 2 1 -1 -2 -2 -2 -1 -2 -2 -2
9 9 10 10 10 10 10 11 11 10 11 11 12 12 11 11 11 11 10 7 5 4 4 4 4 4 4 5 5 5 5 5 5 4 2 1 1 1 1 -0 -1 -1 -1 -1 -1 -1 -1
9 9 10 10 10 11 11 11 11 11 11 11 12 11 11 11 12 11 10 7 6 5 4 4 4 4 3 4 4 4 4 4 4 3 2 0 -0 0 1 0 -0 -1 -0 -0 -0 -0 -0
9 9 10 10 11 12 12 12 12 11 11 11 11 10 10 11 12 11 10 8 7 5 4 3 3 3 3 3 3 3 3 3 3 3 2 1 -0 -0 0 0 0 -0 -0 0 0 -0 -0
9 10 10 11 12 13 13 14 14 13 11 10 10 9 10 11 11 11 9 9 8 6 4 3 3 3 2 2 3 2 2 2 2 3 2 1 0 -0 -0 -0 -0 -0 -0 -0 -0 -1 -1
10 10 11 12 13 14 14 15 15 14 12 10 9 9 9 10 10 10 9 9 8 7 5 4 3 3 2 2 2 2 1 1 2 2 2 1 0 -0 -1 -1 -0 -0 -0 -0 -0 -0 -1
10 10 11 13 14 15 15 16 16 15 13 10 9 8 8 8 8 8 8 8 8 7 5 4 3 2 2 2 1 1 1 1 1 1 1 1 0 -0 -1 -0 -0 -0 0 0 0 -0 -0
10 11 12 14 15 15 16 16 16 15 13 10 8 8 7 7 7 7 7 7 7 7 5 4 3 2 1 1 1 1 1 1 1 1 1 0 -0 -0 -0 -0 -0 0 1 1 1 1 0
10 12 13 15 15 16 16 16 16 15 13 10 8 7 7 7 7 7 7 6 6 6 5 4 3 2 1 0 0 0 0 0 0 0 1 0 -0 -1 -0 0 1 1 1 2 2 1 1
11 12 14 15 16 16 16 16 15 15 13 11 9 8 8 7 7 7 7 6 5 5 4 3 2 2 1 0 -0 -1 -1 -0 -0 0 0 0 -1 -1 -1 0 1 2 2 2 2 2 2
12 13 15 16 16 16 16 16 15 15 14 12 11 10 9 8 8 7 7 6 5 4 4 3 3 2 1 0 -0 -1 -1 -0 -0 0 0 -0 -1 -1 -1 -0 1 2 2 2 2 2 2
12 14 16 17 17 17 16 16 15 15 14 13 13 11 9 8 8 8 7 7 6 5 4 3 3 2 1 1 0 -0 -1 -0 0 0 0 -0 -1 -1 -1 -0 0 1 1 2 2 3 3
13 15 17 17 17 17 17 16 16 15 15 14 13 12 10 9 8 8 8 7 6 5 4 4 3 2 2 1 0 -1 -1 -1 0 0 0 -0 -1 -1 -1 -1 -0 0 1 2 2 3 3
14 15 17 18 18 17 17 16 16 15 14 14 13 12 11 9 9 8 7 6 5 4 4 3 3 2 2 2 1 -0 -2 -2 -1 -0 0 0 -0 -1 -1 -1 -0 0 1 1 2 2 2
15 16 17 17 17 17 17 16 15 15 14 13 13 12 11 10 9 8 7 6 5 4 3 3 3 2 2 2 1 0 -2 -2 -2 -1 -0 0 0 -0 -1 -1 -0 0 0 0 0 -0 -0
16 16 17 17 17 16 16 15 15 15 14 13 12 11 10 10 9 9 7 6 5 5 4 3 3 2 1 1 1 0 -1 -2 -2 -1 -0 0 0 -0 -1 -1 -0 0 -0 -0 -1 -2 -2
16 16 16 16 16 16 15 15 15 15 14 13 11 10 10 10 10 9 8 7 6 5 4 4 3 1 0 -0 0 0 -0 -1 -2 -1 -0 0 0 -0 -1 -1 -1 -0 -0 -1 -1 -2 -3